CW9197 Juva FI current weather conditions

sailwx.info

Wind from 225

Air temperature 20.0° C
Dewpoint 17.0° C

Last reported at 2016-Jul-27 20:55 UTC.
Time now 2016-Jul-27 21:07 UTC

Location: N 61°53' E 027°53'.
View on Google Maps.

See reports from other nearby stations

  
Tides and Currents Weather Stations Pressure Air Temp Water Temp Dewpoint Dewpoint Depression Visibility Wind Speed Wind Dir Waves Ship Positions
date/time (UTC)wind fromknots sea level pressurealtimeterstation pressurevisibilityair tempwater tempwave heightnotes
2016-Jul-27 20:55 225 20.0
2016-Jul-27 20:45 201 20.6
2016-Jul-27 20:35 226 20.6
2016-Jul-27 20:25 229 20.6
2016-Jul-27 20:15 20.6
2016-Jul-27 20:05 203 20.6
2016-Jul-27 19:55 225 21.1
2016-Jul-27 19:45 21.1
2016-Jul-27 19:35 221 21.1
2016-Jul-27 19:25 254 21.7
2016-Jul-27 19:15 220 21.7
2016-Jul-27 19:05 241 22.2
2016-Jul-27 18:55 285 22.2
2016-Jul-27 18:45 182 22.8
2016-Jul-27 18:35 240 22.8
2016-Jul-27 18:25 309 23.3
2016-Jul-27 18:15 272 23.3
2016-Jul-27 18:05 207 23.3
2016-Jul-27 17:55 204 23.3
2016-Jul-27 17:45 229 23.3
2016-Jul-27 17:35 221 23.3
2016-Jul-27 17:25 223 23.3
2016-Jul-27 17:15 225 23.9
2016-Jul-27 17:05 258 0 gusting 2 23.9
2016-Jul-27 16:55 266 23.9
2016-Jul-27 16:45 224 24.4
2016-Jul-27 16:35 245 0 gusting 3 25.0
2016-Jul-27 16:25 255 1 gusting 4 25.0
2016-Jul-27 16:15 237 0 gusting 4 25.0
2016-Jul-27 16:05 220 1 gusting 4 24.4
2016-Jul-27 15:55 217 1 gusting 3 24.4
2016-Jul-27 15:45 212 1 gusting 3 24.4
2016-Jul-27 15:35 219 0 gusting 1 25.0
2016-Jul-27 15:25 230 1 gusting 3 25.6
2016-Jul-27 15:15 261 1 gusting 4 25.6
2016-Jul-27 15:05 240 1 gusting 5 25.6
2016-Jul-27 14:55 234 2 gusting 4 25.6
2016-Jul-27 14:45 235 1 gusting 6 25.0
2016-Jul-27 14:35 214 2 gusting 4 25.0
2016-Jul-27 14:25 219 2 gusting 5 25.0
2016-Jul-27 14:15 221 2 gusting 5 25.6
2016-Jul-27 14:05 224 1 gusting 3 25.6
2016-Jul-27 13:55 247 1 gusting 6 25.6
2016-Jul-27 13:45 238 1 gusting 4 26.1
2016-Jul-27 13:35 230 1 gusting 4 25.6
2016-Jul-27 13:25 239 1 gusting 3 25.0
2016-Jul-27 13:15 233 0 gusting 2 24.4
2016-Jul-27 13:05 221 1 gusting 6 25.0
2016-Jul-27 12:55 231 1 gusting 3 25.6
2016-Jul-27 12:45 230 0 gusting 2 26.7
2016-Jul-27 12:35 224 2 gusting 6 27.2
2016-Jul-27 12:25 221 2 gusting 5 26.7
2016-Jul-27 12:15 221 2 gusting 5 26.1
2016-Jul-27 12:05 225 1 gusting 3 26.1
2016-Jul-27 11:55 221 1 gusting 5 26.1
2016-Jul-27 11:45 221 1 gusting 3 24.4
2016-Jul-27 11:35 225 3 gusting 6 24.4
2016-Jul-27 11:25 219 1 gusting 3 24.4
2016-Jul-27 11:15 222 2 gusting 4 25.0
2016-Jul-27 11:05 225 1 gusting 4 25.0
2016-Jul-27 10:55 220 1 gusting 4 26.1
2016-Jul-27 10:45 225 2 gusting 6 26.1
2016-Jul-27 10:35 230 1 gusting 5 26.7
2016-Jul-27 10:25 219 1 gusting 3 26.7
2016-Jul-27 10:15 219 3 gusting 5 27.8
2016-Jul-27 10:05 220 3 gusting 6 27.8
2016-Jul-27 09:55 222 3 gusting 6 27.2
2016-Jul-27 09:45 216 3 gusting 6 27.2
2016-Jul-27 09:35 220 4 gusting 6 27.2
2016-Jul-27 09:25 221 2 gusting 5 26.7
2016-Jul-27 09:15 216 3 gusting 6 27.2
2016-Jul-27 09:05 224 3 gusting 6 27.2
2016-Jul-27 08:55 217 2 gusting 5 26.1
2016-Jul-27 08:45 222 3 gusting 5 25.6
2016-Jul-27 08:35 223 3 gusting 6 26.7
2016-Jul-27 08:25 222 3 gusting 5 26.7
2016-Jul-27 08:15 221 2 gusting 5 26.7
2016-Jul-27 08:05 218 3 gusting 6 26.7
2016-Jul-27 07:55 220 3 gusting 8 26.1
2016-Jul-27 07:45 217 3 gusting 6 25.6
2016-Jul-27 07:35 211 2 gusting 4 25.6
2016-Jul-27 07:25 210 1 gusting 3 26.1
2016-Jul-27 07:15 215 1 gusting 4 26.7
2016-Jul-27 07:05 226 2 gusting 6 26.7
2016-Jul-27 06:55 228 3 gusting 5 26.7
2016-Jul-27 06:45 224 2 gusting 5 26.7
2016-Jul-27 06:35 221 1 gusting 4 26.7
2016-Jul-27 06:25 218 1 gusting 3 26.1
2016-Jul-27 06:15 212 1 gusting 3 26.1
2016-Jul-27 06:05 216 1 gusting 4 25.6
2016-Jul-27 05:55 174 0 gusting 2 25.6
2016-Jul-27 05:45 209 0 gusting 3 25.0
2016-Jul-27 05:35 205 0 gusting 2 25.0
2016-Jul-27 05:25 212 0 gusting 2 25.0
2016-Jul-27 05:15 212 1 gusting 2 24.4
2016-Jul-27 05:05 217 1 gusting 3 23.9
2016-Jul-27 04:55 218 1 gusting 3 23.9
2016-Jul-27 04:45 194 0 gusting 2 23.3
2016-Jul-27 04:35 211 0 gusting 2 23.3
2016-Jul-27 04:25 212 1 gusting 3 22.2
2016-Jul-27 04:15 197 0 gusting 2 21.7
2016-Jul-27 04:05 212 1 gusting 3 21.1
2016-Jul-27 03:55 216 1 gusting 3 20.6
2016-Jul-27 03:45 197 0 gusting 2 20.6
2016-Jul-27 03:35 211 0 gusting 2 20.0
2016-Jul-27 03:25 201 0 gusting 1 20.0
2016-Jul-27 03:15 20.0
2016-Jul-27 03:05 216 0 gusting 1 19.4
2016-Jul-27 02:55 223 18.3
2016-Jul-27 02:45 17.8
2016-Jul-27 02:35 192 17.8
2016-Jul-27 02:25 182 17.8
2016-Jul-27 02:15 202 17.8
2016-Jul-27 02:05 195 0 gusting 1 17.2
2016-Jul-27 01:55 202 0 gusting 1 17.2
2016-Jul-27 01:45 208 0 gusting 1 17.2
2016-Jul-27 01:35 197 17.2
2016-Jul-27 01:25 17.2
2016-Jul-27 01:15 220 17.2
2016-Jul-27 01:05 196 17.2
2016-Jul-27 00:55 202 17.2
2016-Jul-27 00:45 17.8
2016-Jul-27 00:35 235 17.8
2016-Jul-27 00:25 247 17.8
2016-Jul-27 00:15 219 17.8
2016-Jul-27 00:05 205 17.8
2016-Jul-26 23:55 230 17.8
2016-Jul-26 23:45 238 17.8
2016-Jul-26 23:35 17.8
2016-Jul-26 23:25 17.8
2016-Jul-26 23:15 17.8
2016-Jul-26 23:05 18.3
2016-Jul-26 22:55 18.3
2016-Jul-26 22:45 180 18.3
2016-Jul-26 22:35 225 18.3
2016-Jul-26 22:25 18.3
2016-Jul-26 22:15 18.3
2016-Jul-26 22:05 18.3
2016-Jul-26 21:55 18.9
2016-Jul-26 21:45 340 18.9
2016-Jul-26 21:35 071 18.9
2016-Jul-26 21:25 252 18.9
2016-Jul-26 21:15 244 18.9
2016-Jul-26 21:05 233 19.4
2016-Jul-26 20:55 244 19.4
2016-Jul-26 20:45 246 20.0
2016-Jul-26 20:35 195 20.0
2016-Jul-26 20:25 188 20.0
2016-Jul-26 20:15 20.0
2016-Jul-26 20:05 228 20.6
2016-Jul-26 19:55 178 20.6
2016-Jul-26 19:45 196 20.6
2016-Jul-26 19:35 186 0 gusting 1 21.1
2016-Jul-26 19:25 178 21.1
2016-Jul-26 19:15 158 21.7
2016-Jul-26 19:05 155 21.7
2016-Jul-26 18:55 157 22.2
2016-Jul-26 18:45 22.2
2016-Jul-26 18:35 157 22.8
2016-Jul-26 18:25 158 22.8
2016-Jul-26 18:15 166 23.3
2016-Jul-26 18:05 23.3
2016-Jul-26 17:45 165 23.9
2016-Jul-26 17:35 169 0 gusting 1 23.9
2016-Jul-26 17:25 159 24.4
2016-Jul-26 17:15 202 24.4
2016-Jul-26 17:05 208 24.4
2016-Jul-26 16:55 215 24.4
2016-Jul-26 16:45 209 0 gusting 1 24.4
2016-Jul-26 16:35 214 0 gusting 1 25.0
2016-Jul-26 16:25 209 0 gusting 2 25.0
2016-Jul-26 16:15 221 0 gusting 1 25.6
2016-Jul-26 16:05 213 0 gusting 2 25.6
2016-Jul-26 15:55 223 25.6
2016-Jul-26 15:45 200 0 gusting 2 25.6
2016-Jul-26 15:35 183 1 gusting 3 25.6
2016-Jul-26 15:25 213 1 gusting 2 25.6
2016-Jul-26 15:15 203 1 gusting 3 25.6
2016-Jul-26 15:05 192 1 gusting 5 25.6
2016-Jul-26 14:55 217 0 gusting 2 25.6
2016-Jul-26 14:45 201 0 gusting 1 25.6
2016-Jul-26 14:35 187 0 gusting 4 26.1
2016-Jul-26 14:25 188 0 gusting 3 26.1
2016-Jul-26 14:15 210 1 gusting 3 26.1
2016-Jul-26 14:05 207 0 gusting 2 26.1
2016-Jul-26 13:55 205 1 gusting 2 26.1
2016-Jul-26 13:45 179 26.1
2016-Jul-26 13:35 173 25.6
2016-Jul-26 13:25 197 26.1
2016-Jul-26 13:15 222 1 gusting 3 27.2
2016-Jul-26 13:05 220 1 gusting 4 26.7
2016-Jul-26 12:55 215 0 gusting 5 27.2
2016-Jul-26 12:45 213 1 gusting 3 27.2
2016-Jul-26 12:35 217 1 gusting 4 27.2
2016-Jul-26 12:25 197 1 gusting 4 27.2
2016-Jul-26 12:15 182 1 gusting 6 27.2
2016-Jul-26 12:05 232 0 gusting 2 27.2
2016-Jul-26 11:55 220 1 gusting 4 27.2
2016-Jul-26 11:45 201 1 gusting 2 27.2
2016-Jul-26 11:35 199 1 gusting 4 27.2
2016-Jul-26 11:25 209 1 gusting 3 27.8
2016-Jul-26 11:15 220 2 gusting 5 27.8
2016-Jul-26 11:05 219 2 gusting 6 27.2
2016-Jul-26 10:55 213 0 gusting 2 27.8
2016-Jul-26 10:45 210 1 gusting 4 27.8
2016-Jul-26 10:35 216 1 gusting 4 27.8
2016-Jul-26 10:25 201 1 gusting 4 28.3
2016-Jul-26 10:15 209 1 gusting 3 28.3
2016-Jul-26 10:05 214 1 gusting 3 28.3
2016-Jul-26 09:55 214 1 gusting 5 27.8
2016-Jul-26 09:45 221 1 gusting 4 27.8
2016-Jul-26 09:35 205 1 gusting 3 27.8
2016-Jul-26 09:25 219 1 gusting 3 27.8
2016-Jul-26 09:15 211 1 gusting 3 27.8
2016-Jul-26 09:05 187 1 gusting 4 27.2
2016-Jul-26 08:55 183 2 gusting 4 27.2
2016-Jul-26 08:45 203 1 gusting 4 27.2
2016-Jul-26 08:35 196 2 gusting 4 27.8
2016-Jul-26 08:25 203 1 gusting 5 26.1
2016-Jul-26 08:15 185 25.6
2016-Jul-26 08:05 204 0 gusting 1 26.7
2016-Jul-26 07:55 185 1 gusting 3 27.8
2016-Jul-26 07:45 204 1 gusting 3 26.7
2016-Jul-26 07:35 201 0 gusting 3 25.6
2016-Jul-26 07:25 191 26.1
2016-Jul-26 07:15 198 1 gusting 2 27.2
2016-Jul-26 07:05 192 1 gusting 2 27.8
2016-Jul-26 06:55 215 0 gusting 2 27.2
2016-Jul-26 06:45 201 0 gusting 2 27.2
2016-Jul-26 06:35 210 0 gusting 1 26.7
2016-Jul-26 06:25 206 0 gusting 2 26.7
2016-Jul-26 06:15 215 0 gusting 2 26.1
2016-Jul-26 06:05 196 0 gusting 2 26.1
2016-Jul-26 05:55 224 25.0
2016-Jul-26 05:45 217 0 gusting 1 24.4
2016-Jul-26 05:35 185 0 gusting 1 25.0
2016-Jul-26 05:25 213 0 gusting 2 24.4
2016-Jul-26 05:15 213 0 gusting 0 23.3
2016-Jul-26 05:05 209 23.3
2016-Jul-26 04:55 190 23.3
2016-Jul-26 04:45 218 22.2
2016-Jul-26 04:35 214 21.7
2016-Jul-26 04:25 219 22.8
2016-Jul-26 04:15 217 0 gusting 1 22.8
2016-Jul-26 04:05 206 0 gusting 1 22.8
2016-Jul-26 03:55 208 0 gusting 1 21.7
2016-Jul-26 03:45 221 0 gusting 1 21.1
2016-Jul-26 03:35 215 0 gusting 0 21.1
2016-Jul-26 03:25 20.6
2016-Jul-26 03:15 203 20.0
2016-Jul-26 03:05 220 0 gusting 1 19.4
2016-Jul-26 02:55 202 18.3
2016-Jul-26 02:45 17.8
2016-Jul-26 02:35 232 17.2
2016-Jul-26 02:25 220 17.2
2016-Jul-26 02:15 228 17.2
2016-Jul-26 02:05 237 17.2
2016-Jul-26 01:55 209 0 gusting 0 16.7
2016-Jul-26 01:45 225 16.7
2016-Jul-26 01:35 16.7
2016-Jul-26 01:25 207 17.2
2016-Jul-26 01:15 226 17.2
2016-Jul-26 01:05 222 17.2
2016-Jul-26 00:55 231 17.2
2016-Jul-26 00:45 17.2
2016-Jul-26 00:35 17.2
2016-Jul-26 00:25 225 17.2
2016-Jul-26 00:15 220 17.2
2016-Jul-26 00:05 213 17.2
2016-Jul-25 23:55 227 17.2
2016-Jul-25 23:45 225 17.8
2016-Jul-25 23:35 225 17.8
2016-Jul-25 23:25 222 17.8
2016-Jul-25 23:15 204 17.8
2016-Jul-25 23:05 229 17.8
2016-Jul-25 22:55 242 17.8
2016-Jul-25 22:45 225 0 gusting 1 17.8
2016-Jul-25 22:35 17.8
2016-Jul-25 22:25 17.8
2016-Jul-25 22:15 17.8
2016-Jul-25 22:05 17.8
2016-Jul-25 21:55 18.3
2016-Jul-25 21:45 18.3
2016-Jul-25 21:35 18.3
2016-Jul-25 21:25 18.3
2016-Jul-25 21:15 200 18.3
2016-Jul-25 21:05 219 18.3